Regional Weather Roundup
Issued by NWS

Home | Current Version | Previous Version | Graphics & Text | Print | Product List | Glossary On
Versions: 1 2 3 4 5 6 7 8 9 10 11 12 13 14 15 16 17 18 19 20 21 22 23 24 25 26 27 28 29 30 31 32 33 34 35 36 37 38 39 40 41 42 43 44 45 46 47 48 49 50
000
ASUS45 KCYS 181610
RWRWY

WYOMING REGIONAL WEATHER ROUNDUP
NATIONAL WEATHER SERVICE CHEYENNE WY
900 AM MST THU DEC 18 2014

NOTE:  "FAIR" INDICATES FEW OR NO CLOUDS BELOW 12,000 FEET
WITH NO SIGNIFICANT WEATHER AND/OR OBSTRUCTIONS TO VISIBILITY.

WYZ001-181700-
YELLOWSTONE NATIONAL PARK

CITY           SKY/WX    TMP DP  RH WIND       PRES   REMARKS
LK YELLOWSTONE   N/A     20  15  81 CALM      30.07R
W YELLOWSTONE  NOT AVBL

$$
WYZ002>013-054>058-071-098>099-181700-
NORTHERN WYOMING

CITY           SKY/WX    TMP DP  RH WIND       PRES   REMARKS
JACKSON        CLOUDY    18  18 100 CALM      30.09R
CODY           FAIR      21  10  63 CALM      30.01R
GREYBULL       FAIR       8   6  92 CALM      30.10R
WORLAND        FAIR       5   2  87 S6        30.07R WCI  -6
SHERIDAN       FAIR      19  12  74 CALM      29.98R
BUFFALO        FAIR      31  17  56 W8        29.99R WCI  23
GILLETTE       FAIR      26  18  71 SW15      29.99R WCI  14
HULETT           N/A    N/A N/A N/A MISG        N/A
NEWCASTLE      FAIR      21  21 100 CALM      30.02S

$$
WYZ014>020-022>026-101>103-181700-
CENTRAL WYOMING

CITY           SKY/WX    TMP DP  RH WIND       PRES   REMARKS
BIG PINEY      FAIR      14   9  80 E5        30.09R WCI   6
PINEDALE       FAIR      12  10  92 NW6       30.09R WCI   3
DUBOIS         FAIR      23  12  63 W13       30.02S WCI  11
LANDER         FOG       -1  -5  82 W3        30.05S VSB 1/4
RIVERTON       HVY SNOW   8   3  80 W3        30.07R VSB 1/4
CASPER         FAIR      23  15  71 SW13      30.04R WCI  11
DOUGLAS        FAIR      18  15  88 CALM      30.04R

$$
WYZ021-027>030-104>119-181700-
SOUTHERN WYOMING

CITY           SKY/WX    TMP DP  RH WIND       PRES   REMARKS
EVANSTON       CLOUDY    24  21  88 CALM      30.09R
KEMMERER       CLOUDY    21  19  93 CALM      30.09R
FORT BRIDGER   CLOUDY    27  23  84 W7        30.12R WCI  20
ROCK SPRINGS   FAIR      20  17  88 SW8       30.09R WCI  10
DIXON          CLOUDY   N/A N/A N/A SE5       30.15R
RAWLINS        FAIR      20  17  88 SW15      30.08R WCI   6
SARATOGA       FAIR      12   9  85 CALM      30.09R
LARAMIE        FAIR      21  16  81 SW9       30.00R WCI  11
CHEYENNE       FAIR      31  16  54 W13       30.02R WCI  21
TORRINGTON     FAIR       9   7  92 S3        30.04R FOG
PINE BLUFFS    FAIR      30  21  69 CALM      30.03R

$$



USA.gov is the U.S. government's official web portal to all federal, state and local government web resources and services.